Elmendorf AFB, AK

7:03 PM AKST on February 20, 2018 (GMT -0900)
Elmendorf Air Force Base

Weather History for PAED - January, 2012

Change the Weather History Date:

Tuesday, January 17, 2012

  Actual Average Record
Temperature  
Mean Temperature -10 °F -  
Max Temperature 0 °F 22 °F 48 °F (1992)
Min Temperature -20 °F 8 °F -25 °F (2004)
Degree Days  
Heating Degree Days 75    
Moisture  
Dew Point -19 °F    
Average Humidity 75    
Maximum Humidity 85    
Minimum Humidity 69    
Precipitation  
Precipitation 0.00 in - - ()
Sea Level Pressure  
Sea Level Pressure 30.54 in    
Wind  
Wind Speed 3 mph (ENE)    
Max Wind Speed 8 mph    
Max Gust Speed -    
Visibility 9 miles    
Events Snow    
Averages and records for this station are not official NWS values.
T = Trace of Precipitation, MM = Missing Value Source: NWS Daily Summary

Daily Weather History Graph

Daily Weather History Graph

Search for Another Location

Airport or City:

Trip Planner

Search our weather history database for the weather conditions in past years. The results will help you decide how hot, cold, wet, or windy it might be!

Date:

Astronomy

Jan. 17, 2012 Rise Set
Actual Time 9:53 AM AKST 4:25 PM AKST
Civil Twilight 8:58 AM AKST 5:20 PM AKST
Nautical Twilight 8:02 AM AKST 6:17 PM AKST
Astronomical Twilight 7:10 AM AKST 7:09 PM AKST
Moon 4:16 AM AKST (1/17) 11:28 AM AKST (1/17)
Length of Visible Light 8h 22m
Length of Day
6h 31m
Waning Crescent, 33% of the Moon is Illuminated
Jan 17
Waning Crescent
Jan 22
New
Jan 30
First Quarter
Feb 7
Full
Feb 14
Last Quarter

Hourly Weather History & Observations

Time (AKST) Temp. Windchill Dew Point Humidity Pressure Visibility Wind Dir Wind Speed Gust Speed Precip Events Conditions
12:54 AM -14.8 °F - -22.0 °F 70% 30.61 in 10.0 mi Calm Calm - N/A Snow Light Snow
12:55 AM -16.2 °F - -22.7 °F 72% 30.61 in 10.0 mi Calm Calm - 0.00 in Snow Light Snow
1:14 AM -16.6 °F -26.8 °F -22.0 °F 76% 30.62 in 10.0 mi ENE 3.5 mph - N/A   Clear
1:55 AM -14.4 °F - -20.7 °F 73% 30.62 in 10.0 mi Calm Calm - 0.00 in   Clear
2:55 AM -15.5 °F -25.6 °F -21.8 °F 73% 30.61 in 10.0 mi NE 3.5 mph - N/A   Clear
3:20 AM -14.8 °F - -20.2 °F 77% 30.60 in 10.0 mi Calm Calm - N/A Snow Light Snow
3:29 AM -14.8 °F -27.2 °F -22.0 °F 70% 30.60 in 10.0 mi ENE 4.6 mph - N/A   Clear
3:55 AM -15.9 °F -28.4 °F -22.0 °F 74% 30.60 in 10.0 mi NE 4.6 mph - 0.00 in   Clear
4:28 AM -14.8 °F - -20.2 °F 77% 30.59 in 10.0 mi Calm Calm - N/A Snow Light Snow
4:39 AM -16.6 °F -29.3 °F -22.0 °F 76% 30.59 in 10.0 mi NE 4.6 mph - N/A   Clear
4:55 AM -11.9 °F - -17.9 °F 75% 30.59 in 10.0 mi Calm Calm - 0.00 in   Clear
5:07 AM -13.0 °F -25.1 °F -20.2 °F 70% 30.59 in 10.0 mi East 4.6 mph - N/A Snow Light Snow
5:19 AM -18.4 °F -31.4 °F -23.8 °F 76% 30.58 in 10.0 mi ENE 4.6 mph - N/A   Clear
5:55 AM -12.6 °F - -18.9 °F 73% 30.57 in 10.0 mi Calm Calm - 0.00 in   Clear
5:56 AM -13.0 °F - -20.2 °F 70% 30.57 in 10.0 mi Calm Calm - N/A Snow Light Snow
6:06 AM -18.4 °F - -23.8 °F 76% 30.57 in 10.0 mi Calm Calm - N/A   Clear
6:55 AM -15.0 °F -27.4 °F -21.1 °F 74% 30.57 in 10.0 mi NE 4.6 mph - 0.00 in   Clear
7:08 AM -9.4 °F -22.7 °F -16.6 °F 71% 30.57 in 10.0 mi SE 5.8 mph - N/A Snow Light Snow
7:19 AM -14.8 °F - -22.0 °F 70% 30.57 in 10.0 mi Calm Calm - N/A   Clear
7:51 AM -14.8 °F -29.1 °F -20.2 °F 77% 30.56 in 9.0 mi ENE 5.8 mph - N/A Snow Light Snow
7:55 AM -15.3 °F -29.8 °F -21.5 °F 74% 30.56 in 9.0 mi NE 5.8 mph - 0.00 in Snow Light Snow
7:57 AM -14.8 °F -29.1 °F -20.2 °F 77% 30.56 in 9.0 mi NE 5.8 mph - N/A   Clear
8:18 AM -14.8 °F -32.2 °F -20.2 °F 77% 30.56 in 10.0 mi East 8.1 mph - N/A Snow Light Snow
8:29 AM -14.8 °F -29.1 °F -22.0 °F 70% 30.56 in 10.0 mi ENE 5.8 mph - N/A   Clear
8:55 AM -14.1 °F -26.3 °F -20.2 °F 74% 30.56 in 10.0 mi ENE 4.6 mph - 0.00 in   Clear
9:08 AM -16.6 °F -29.3 °F -22.0 °F 76% 30.56 in 10.0 mi NE 4.6 mph - N/A Snow Light Snow
9:18 AM -20.2 °F -33.5 °F -27.4 °F 69% 30.56 in 5.0 mi East 4.6 mph - N/A   Haze
9:55 AM -14.4 °F - -20.6 °F 74% 30.56 in 9.0 mi Calm Calm - 0.00 in   Clear
9:57 AM -14.8 °F -27.2 °F -22.0 °F 70% 30.56 in 8.0 mi ENE 4.6 mph - N/A Snow Light Snow
10:06 AM -13.0 °F -27.0 °F -18.4 °F 77% 30.56 in 9.0 mi NE 5.8 mph - N/A   Clear
10:16 AM -9.4 °F - -14.8 °F 77% 30.56 in 2.5 mi Calm Calm - N/A   Clear
10:19 AM -9.4 °F - -14.8 °F 77% 30.56 in 3.0 mi Calm Calm - N/A   Clear
10:35 AM -16.6 °F -34.4 °F -23.8 °F 70% 30.56 in 5.0 mi East 8.1 mph - N/A Snow Light Snow
10:45 AM -16.6 °F -29.3 °F -22.0 °F 76% 30.57 in 10.0 mi NE 4.6 mph - N/A   Clear
10:55 AM -11.4 °F - -17.0 °F 76% 30.56 in 10.0 mi Calm Calm - 0.00 in   Clear
11:31 AM -13.0 °F -27.0 °F -20.2 °F 70% 30.55 in 2.0 mi East 5.8 mph - N/A   Haze
11:32 AM -13.0 °F -27.0 °F -20.2 °F 70% 30.55 in 1.8 mi ENE 5.8 mph - N/A Snow Light Snow
11:34 AM -13.0 °F -25.1 °F -20.2 °F 70% 30.55 in 1.5 mi ENE 4.6 mph - N/A Snow Light Snow
11:41 AM -11.2 °F -23.0 °F -16.6 °F 77% 30.55 in 3.0 mi ENE 4.6 mph - N/A   Clear
11:55 AM -9.0 °F -22.3 °F -14.4 °F 77% 30.55 in 10.0 mi ENE 5.8 mph - 0.00 in   Clear
12:55 PM -0.9 °F - -5.6 °F 81% 30.53 in 10.0 mi Calm Calm - N/A   Clear
1:55 PM -1.7 °F -9.7 °F -6.7 °F 79% 30.52 in 10.0 mi ENE 3.5 mph - N/A   Clear
1:58 PM -2.2 °F -10.4 °F -5.8 °F 85% 30.52 in 10.0 mi East 3.5 mph - N/A Snow Light Snow
2:13 PM -2.2 °F - -7.6 °F 78% 30.52 in 10.0 mi Calm Calm - N/A   Clear
2:55 PM -2.2 °F -10.4 °F -7.8 °F 77% 30.51 in 10.0 mi ENE 3.5 mph - 0.00 in   Clear
3:55 PM -4.7 °F -15.4 °F -10.1 °F 78% 30.49 in 10.0 mi NE 4.6 mph - N/A   Clear
4:55 PM -10.3 °F - -15.7 °F 77% 30.49 in 10.0 mi Calm Calm - N/A   Clear
5:55 PM -9.6 °F -18.8 °F -15.5 °F 75% 30.48 in 10.0 mi NE 3.5 mph - N/A   Clear
6:55 PM -9.9 °F -19.2 °F -15.3 °F 77% 30.47 in 10.0 mi NE 3.5 mph - N/A   Clear
7:55 PM -11.0 °F - -16.8 °F 76% 30.47 in 10.0 mi Calm Calm - N/A   Clear
8:55 PM -13.9 °F - -19.8 °F 75% 30.46 in 9.0 mi Calm Calm - N/A   Clear
9:03 PM -13.0 °F -27.0 °F -20.2 °F 70% 30.47 in 9.0 mi ENE 5.8 mph - N/A Snow Light Snow
9:12 PM -14.8 °F - -22.0 °F 70% 30.46 in 10.0 mi Calm Calm - N/A   Clear
9:55 PM -12.3 °F -26.1 °F -18.2 °F 75% 30.47 in 10.0 mi ENE 5.8 mph - 0.00 in   Clear
10:15 PM -9.4 °F - -14.8 °F 77% 30.46 in 10.0 mi Calm Calm - N/A Snow Light Snow
10:25 PM -13.0 °F - -18.4 °F 77% 30.46 in 10.0 mi Calm Calm - N/A   Clear
10:55 PM -13.5 °F - -19.5 °F 75% 30.47 in 10.0 mi Calm Calm - 0.00 in   Clear
11:55 PM -14.3 °F -24.1 °F -20.6 °F 73% 30.45 in 10.0 mi ENE 3.5 mph - N/A   Clear
11:59 PM -14.8 °F -27.2 °F -20.2 °F 77% 30.45 in 10.0 mi East 4.6 mph - N/A Snow Light Snow